owner,sensor,date,latitude,longitude,vertical_datum,mass_concentration_of_oxygen_in_sea_water,qcFlag 
SCCF RECON,ioos:station:SCCF:13:1,2009-09-08T19:00:00Z,26.5255,-82.0032,2.53,5.32,1111122 
SCCF RECON,ioos:station:SCCF:13:1,2009-09-08T20:00:00Z,26.5255,-82.0032,2.58,6.12,1111122 
SCCF RECON,ioos:station:SCCF:13:1,2009-09-08T21:00:00Z,26.5255,-82.0032,2.598,6.58,1111122 
SCCF RECON,ioos:station:SCCF:13:1,2009-09-08T22:00:00Z,26.5255,-82.0032,2.57,6.98,1111122 
SCCF RECON,ioos:station:SCCF:13:1,2009-09-08T23:00:00Z,26.5255,-82.0032,2.53,6.57,1111122 
SCCF RECON,ioos:station:SCCF:13:1,2009-09-09T00:00:00Z,26.5255,-82.0032,2.45,6.57,1111122 
SCCF RECON,ioos:station:SCCF:13:1,2009-09-09T01:00:00Z,26.5255,-82.0032,2.4,5.55,1111122 
SCCF RECON,ioos:station:SCCF:13:1,2009-09-09T02:00:00Z,26.5255,-82.0032,2.41,5.5,1111122 
SCCF RECON,ioos:station:SCCF:13:1,2009-09-09T03:00:00Z,26.5255,-82.0032,2.444,5.36,1111122 
SCCF RECON,ioos:station:SCCF:13:1,2009-09-09T04:00:00Z,26.5255,-82.0032,2.496,4.23,1111122 
SCCF RECON,ioos:station:SCCF:13:1,2009-09-09T05:00:00Z,26.5255,-82.0032,2.56,4.85,1111122 
SCCF RECON,ioos:station:SCCF:13:1,2009-09-09T06:00:00Z,26.5255,-82.0032,2.63,5.57,1111122 
SCCF RECON,ioos:station:SCCF:13:1,2009-09-09T07:00:00Z,26.5255,-82.0032,2.68,5.66,1111122 
SCCF RECON,ioos:station:SCCF:13:1,2009-09-09T08:00:00Z,26.5255,-82.0032,2.74,5.55,1111122 
SCCF RECON,ioos:station:SCCF:13:1,2009-09-09T09:00:00Z,26.5255,-82.0032,2.75,5.44,1111122 
SCCF RECON,ioos:station:SCCF:13:1,2009-09-09T10:00:00Z,26.5255,-82.0032,2.68,4.83,1111122 
SCCF RECON,ioos:station:SCCF:13:1,2009-09-09T11:00:00Z,26.5255,-82.0032,2.584,4.81,1111122 
SCCF RECON,ioos:station:SCCF:13:1,2009-09-09T12:00:00Z,26.5255,-82.0032,2.48,4.82,1111122 
SCCF RECON,ioos:station:SCCF:13:1,2009-09-09T13:00:00Z,26.5255,-82.0032,2.38,5.22,1111122 
SCCF RECON,ioos:station:SCCF:13:1,2009-09-09T14:00:00Z,26.5255,-82.0032,2.303,5.38,1111122 
SCCF RECON,ioos:station:SCCF:13:1,2009-09-09T15:00:00Z,26.5255,-82.0032,2.228,5.36,1111122 
SCCF RECON,ioos:station:SCCF:13:1,2009-09-09T16:00:00Z,26.5255,-82.0032,2.21,5.4,1111122 
SCCF RECON,ioos:station:SCCF:13:1,2009-09-09T17:00:00Z,26.5255,-82.0032,2.276,5.52,1111122 
SCCF RECON,ioos:station:SCCF:13:1,2009-09-09T18:00:00Z,26.5255,-82.0032,2.39,5.46,1111122 
SCCF RECON,ioos:station:SCCF:13:1,2009-09-09T19:00:00Z,26.5255,-82.0032,2.46,5.28,1111122 
SCCF RECON,ioos:station:SCCF:13:1,2009-09-09T20:00:00Z,26.5255,-82.0032,2.49,4.98,1111122 
SCCF RECON,ioos:station:SCCF:13:1,2009-09-09T21:00:00Z,26.5255,-82.0032,2.54,5.46,1111122 
SCCF RECON,ioos:station:SCCF:13:1,2009-09-09T22:00:00Z,26.5255,-82.0032,2.58,6.13,1111122 
SCCF RECON,ioos:station:SCCF:13:1,2009-09-09T23:00:00Z,26.5255,-82.0032,2.555,6.23,1111122 
SCCF RECON,ioos:station:SCCF:13:1,2009-09-10T00:00:00Z,26.5255,-82.0032,2.57,5.92,1111122 
SCCF RECON,ioos:station:SCCF:13:1,2009-09-10T01:00:00Z,26.5255,-82.0032,2.5,5.86,1111122 
SCCF RECON,ioos:station:SCCF:13:1,2009-09-10T02:00:00Z,26.5255,-82.0032,2.46,5.88,1111122 
SCCF RECON,ioos:station:SCCF:13:1,2009-09-10T03:00:00Z,26.5255,-82.0032,2.448,5.33,1111122 
SCCF RECON,ioos:station:SCCF:13:1,2009-09-10T04:00:00Z,26.5255,-82.0032,2.481,4.77,1111122 
SCCF RECON,ioos:station:SCCF:13:1,2009-09-10T05:00:00Z,26.5255,-82.0032,2.56,4.41,1111122 
SCCF RECON,ioos:station:SCCF:13:1,2009-09-10T06:00:00Z,26.5255,-82.0032,2.64,5.19,1111122 
SCCF RECON,ioos:station:SCCF:13:1,2009-09-10T07:00:00Z,26.5255,-82.0032,2.68,5.51,1111122 
SCCF RECON,ioos:station:SCCF:13:1,2009-09-10T08:00:00Z,26.5255,-82.0032,2.71,5.12,1111122 
SCCF RECON,ioos:station:SCCF:13:1,2009-09-10T09:00:00Z,26.5255,-82.0032,2.76,4.89,1111122 
SCCF RECON,ioos:station:SCCF:13:1,2009-09-10T10:00:00Z,26.5255,-82.0032,2.78,5.07,1111122 
SCCF RECON,ioos:station:SCCF:13:1,2009-09-10T11:00:00Z,26.5255,-82.0032,2.768,4.91,1111122 
SCCF RECON,ioos:station:SCCF:13:1,2009-09-10T12:00:00Z,26.5255,-82.0032,2.67,4.72,1111122 
SCCF RECON,ioos:station:SCCF:13:1,2009-09-10T13:00:00Z,26.5255,-82.0032,2.53,4.59,1111122 
SCCF RECON,ioos:station:SCCF:13:1,2009-09-10T14:00:00Z,26.5255,-82.0032,2.429,5.39,1111122 
SCCF RECON,ioos:station:SCCF:13:1,2009-09-10T15:00:00Z,26.5255,-82.0032,2.36,5.45,1111122 
SCCF RECON,ioos:station:SCCF:13:1,2009-09-10T16:00:00Z,26.5255,-82.0032,2.287,5.47,1111122 
SCCF RECON,ioos:station:SCCF:13:1,2009-09-10T17:00:00Z,26.5255,-82.0032,2.266,5.49,1111122 
SCCF RECON,ioos:station:SCCF:13:1,2009-09-10T18:00:00Z,26.5255,-82.0032,2.35,5.61,1111122 
SCCF RECON,ioos:station:SCCF:13:1,2009-09-10T19:00:00Z,26.5255,-82.0032,2.445,5.36,1111122 
SCCF RECON,ioos:station:SCCF:13:1,2009-09-10T20:00:00Z,26.5255,-82.0032,2.488,5.32,1111122 
SCCF RECON,ioos:station:SCCF:13:1,2009-09-10T21:00:00Z,26.5255,-82.0032,2.54,5.27,1111122 
SCCF RECON,ioos:station:SCCF:13:1,2009-09-10T22:00:00Z,26.5255,-82.0032,2.6,5.05,1111122 
SCCF RECON,ioos:station:SCCF:13:1,2009-09-10T23:00:00Z,26.5255,-82.0032,2.6,5.52,1111122 
SCCF RECON,ioos:station:SCCF:13:1,2009-09-11T00:00:00Z,26.5255,-82.0032,2.59,5.76,1111122 
SCCF RECON,ioos:station:SCCF:13:1,2009-09-11T01:00:00Z,26.5255,-82.0032,2.59,5.61,1111122 
SCCF RECON,ioos:station:SCCF:13:1,2009-09-11T02:00:00Z,26.5255,-82.0032,2.6,5.01,1111122 
SCCF RECON,ioos:station:SCCF:13:1,2009-09-11T03:00:00Z,26.5255,-82.0032,2.59,4.98,1111122 
SCCF RECON,ioos:station:SCCF:13:1,2009-09-11T04:00:00Z,26.5255,-82.0032,2.58,5.26,1111122 
SCCF RECON,ioos:station:SCCF:13:1,2009-09-11T05:00:00Z,26.5255,-82.0032,2.589,4.21,1111122 
SCCF RECON,ioos:station:SCCF:13:1,2009-09-11T06:00:00Z,26.5255,-82.0032,2.65,4.57,1111122 
SCCF RECON,ioos:station:SCCF:13:1,2009-09-11T07:00:00Z,26.5255,-82.0032,2.73,5.27,1111122 
SCCF RECON,ioos:station:SCCF:13:1,2009-09-11T08:00:00Z,26.5255,-82.0032,2.78,5.13,1111122 
SCCF RECON,ioos:station:SCCF:13:1,2009-09-11T09:00:00Z,26.5255,-82.0032,2.8,4.91,1111122 
SCCF RECON,ioos:station:SCCF:13:1,2009-09-11T10:00:00Z,26.5255,-82.0032,2.81,4.55,1111122 
SCCF RECON,ioos:station:SCCF:13:1,2009-09-11T11:00:00Z,26.5255,-82.0032,2.805,4.6,1111122 
SCCF RECON,ioos:station:SCCF:13:1,2009-09-11T12:00:00Z,26.5255,-82.0032,2.773,4.33,1111122 
SCCF RECON,ioos:station:SCCF:13:1,2009-09-11T13:00:00Z,26.5255,-82.0032,2.66,4.36,1111122 
SCCF RECON,ioos:station:SCCF:13:1,2009-09-11T14:00:00Z,26.5255,-82.0032,2.56,4.63,1111122 
SCCF RECON,ioos:station:SCCF:13:1,2009-09-11T15:00:00Z,26.5255,-82.0032,2.459,5.37,1111122 
SCCF RECON,ioos:station:SCCF:13:1,2009-09-11T16:00:00Z,26.5255,-82.0032,2.37,5.51,1111122 
SCCF RECON,ioos:station:SCCF:13:1,2009-09-11T17:00:00Z,26.5255,-82.0032,2.301,5.43,1111122 
SCCF RECON,ioos:station:SCCF:13:1,2009-09-11T18:00:00Z,26.5255,-82.0032,2.26,5.47,1111122 
SCCF RECON,ioos:station:SCCF:13:1,2009-09-11T19:00:00Z,26.5255,-82.0032,2.33,5.47,1111122 
SCCF RECON,ioos:station:SCCF:13:1,2009-09-11T20:00:00Z,26.5255,-82.0032,2.41,5.36,1111122 
SCCF RECON,ioos:station:SCCF:13:1,2009-09-11T21:00:00Z,26.5255,-82.0032,2.492,5.04,1111122 
SCCF RECON,ioos:station:SCCF:13:1,2009-09-11T22:00:00Z,26.5255,-82.0032,2.51,5.39,1111122 
SCCF RECON,ioos:station:SCCF:13:1,2009-09-11T23:00:00Z,26.5255,-82.0032,2.55,5.05,1111122 
SCCF RECON,ioos:station:SCCF:13:1,2009-09-12T00:00:00Z,26.5255,-82.0032,2.59,4.87,1111122 
SCCF RECON,ioos:station:SCCF:13:1,2009-09-12T01:00:00Z,26.5255,-82.0032,2.64,5.43,1111122 
SCCF RECON,ioos:station:SCCF:13:1,2009-09-12T02:00:00Z,26.5255,-82.0032,2.67,5.33,1111122 
SCCF RECON,ioos:station:SCCF:13:1,2009-09-12T03:00:00Z,26.5255,-82.0032,2.697,5.14,1111122 
SCCF RECON,ioos:station:SCCF:13:1,2009-09-12T04:00:00Z,26.5255,-82.0032,2.7,5.31,1111122 
SCCF RECON,ioos:station:SCCF:13:1,2009-09-12T05:00:00Z,26.5255,-82.0032,2.67,5.03,1111122 
SCCF RECON,ioos:station:SCCF:13:1,2009-09-12T06:00:00Z,26.5255,-82.0032,2.685,4.75,1111122 
SCCF RECON,ioos:station:SCCF:13:1,2009-09-12T07:00:00Z,26.5255,-82.0032,2.73,4.55,1111122 
SCCF RECON,ioos:station:SCCF:13:1,2009-09-12T08:00:00Z,26.5255,-82.0032,2.78,4.43,1111122 
SCCF RECON,ioos:station:SCCF:13:1,2009-09-12T09:00:00Z,26.5255,-82.0032,2.88,4.98,1111122 
SCCF RECON,ioos:station:SCCF:13:1,2009-09-12T10:00:00Z,26.5255,-82.0032,2.89,4.74,1111122 
SCCF RECON,ioos:station:SCCF:13:1,2009-09-12T11:00:00Z,26.5255,-82.0032,2.98,4.46,1111122 
SCCF RECON,ioos:station:SCCF:13:1,2009-09-12T12:00:00Z,26.5255,-82.0032,2.89,4.31,1111122 
SCCF RECON,ioos:station:SCCF:13:1,2009-09-12T13:00:00Z,26.5255,-82.0032,2.84,4.14,1111122 
SCCF RECON,ioos:station:SCCF:13:1,2009-09-12T14:00:00Z,26.5255,-82.0032,2.73,4.16,1111122 
SCCF RECON,ioos:station:SCCF:13:1,2009-09-12T15:00:00Z,26.5255,-82.0032,2.62,4.67,1111122 
SCCF RECON,ioos:station:SCCF:13:1,2009-09-12T16:00:00Z,26.5255,-82.0032,2.509,5.17,1111122 
SCCF RECON,ioos:station:SCCF:13:1,2009-09-12T17:00:00Z,26.5255,-82.0032,2.41,5.18,1111122 
SCCF RECON,ioos:station:SCCF:13:1,2009-09-12T18:00:00Z,26.5255,-82.0032,2.333,5.26,1111122 
SCCF RECON,ioos:station:SCCF:13:1,2009-09-12T19:00:00Z,26.5255,-82.0032,2.28,5.32,1111122 
SCCF RECON,ioos:station:SCCF:13:1,2009-09-12T20:00:00Z,26.5255,-82.0032,2.348,5.33,1111122 
SCCF RECON,ioos:station:SCCF:13:1,2009-09-12T21:00:00Z,26.5255,-82.0032,2.363,5.28,1111122 
SCCF RECON,ioos:station:SCCF:13:1,2009-09-12T22:00:00Z,26.5255,-82.0032,2.42,5.22,1111122 
SCCF RECON,ioos:station:SCCF:13:1,2009-09-12T23:00:00Z,26.5255,-82.0032,2.49,4.95,1111122 
SCCF RECON,ioos:station:SCCF:13:1,2009-09-13T00:00:00Z,26.5255,-82.0032,2.56,4.8,1111122 
SCCF RECON,ioos:station:SCCF:13:1,2009-09-13T01:00:00Z,26.5255,-82.0032,2.64,4.99,1111122 
SCCF RECON,ioos:station:SCCF:13:1,2009-09-13T02:00:00Z,26.5255,-82.0032,2.62,4.94,1111122 
SCCF RECON,ioos:station:SCCF:13:1,2009-09-13T03:00:00Z,26.5255,-82.0032,2.63,4.73,1111122 
SCCF RECON,ioos:station:SCCF:13:1,2009-09-13T04:00:00Z,26.5255,-82.0032,2.65,4.55,1111122 
SCCF RECON,ioos:station:SCCF:13:1,2009-09-13T05:00:00Z,26.5255,-82.0032,2.67,3.98,1111122 
SCCF RECON,ioos:station:SCCF:13:1,2009-09-13T06:00:00Z,26.5255,-82.0032,2.687,3.76,1111122 
SCCF RECON,ioos:station:SCCF:13:1,2009-09-13T07:00:00Z,26.5255,-82.0032,2.71,3.62,1111122 
SCCF RECON,ioos:station:SCCF:13:1,2009-09-13T08:00:00Z,26.5255,-82.0032,2.71,4.36,1111122 
SCCF RECON,ioos:station:SCCF:13:1,2009-09-13T09:00:00Z,26.5255,-82.0032,2.776,3.72,1111122 
SCCF RECON,ioos:station:SCCF:13:1,2009-09-13T10:00:00Z,26.5255,-82.0032,2.87,4.36,1111122 
SCCF RECON,ioos:station:SCCF:13:1,2009-09-13T11:00:00Z,26.5255,-82.0032,2.92,4.25,1111122 
SCCF RECON,ioos:station:SCCF:13:1,2009-09-13T12:00:00Z,26.5255,-82.0032,2.946,4.12,1111122 
SCCF RECON,ioos:station:SCCF:13:1,2009-09-13T13:00:00Z,26.5255,-82.0032,2.938,3.97,1111122 
SCCF RECON,ioos:station:SCCF:13:1,2009-09-13T14:00:00Z,26.5255,-82.0032,2.878,3.91,1111122 
SCCF RECON,ioos:station:SCCF:13:1,2009-09-13T15:00:00Z,26.5255,-82.0032,2.78,4.04,1111122 
SCCF RECON,ioos:station:SCCF:13:1,2009-09-13T16:00:00Z,26.5255,-82.0032,2.678,4.24,1111122 
SCCF RECON,ioos:station:SCCF:13:1,2009-09-13T17:00:00Z,26.5255,-82.0032,2.57,4.61,1111122 
SCCF RECON,ioos:station:SCCF:13:1,2009-09-13T18:00:00Z,26.5255,-82.0032,2.469,5.12,1111122 
SCCF RECON,ioos:station:SCCF:13:1,2009-09-13T19:00:00Z,26.5255,-82.0032,2.379,5.32,1111122 
SCCF RECON,ioos:station:SCCF:13:1,2009-09-13T20:00:00Z,26.5255,-82.0032,2.304,5.27,1111122 
SCCF RECON,ioos:station:SCCF:13:1,2009-09-13T21:00:00Z,26.5255,-82.0032,2.29,5.29,1111122 
SCCF RECON,ioos:station:SCCF:13:1,2009-09-13T22:00:00Z,26.5255,-82.0032,2.381,5.64,1111122 
SCCF RECON,ioos:station:SCCF:13:1,2009-09-13T23:00:00Z,26.5255,-82.0032,2.46,5.86,1111122 
SCCF RECON,ioos:station:SCCF:13:1,2009-09-14T00:00:00Z,26.5255,-82.0032,2.5,5.59,1111122 
SCCF RECON,ioos:station:SCCF:13:1,2009-09-14T01:00:00Z,26.5255,-82.0032,2.54,5.22,1111122 
SCCF RECON,ioos:station:SCCF:13:1,2009-09-14T02:00:00Z,26.5255,-82.0032,2.61,5.14,1111122 
SCCF RECON,ioos:station:SCCF:13:1,2009-09-14T03:00:00Z,26.5255,-82.0032,2.67,5.05,1111122 
SCCF RECON,ioos:station:SCCF:13:1,2009-09-14T04:00:00Z,26.5255,-82.0032,2.68,5.05,1111122 
SCCF RECON,ioos:station:SCCF:13:1,2009-09-14T05:00:00Z,26.5255,-82.0032,2.67,5.01,1111122 
SCCF RECON,ioos:station:SCCF:13:1,2009-09-14T06:00:00Z,26.5255,-82.0032,2.65,4.38,1111122 
SCCF RECON,ioos:station:SCCF:13:1,2009-09-14T07:00:00Z,26.5255,-82.0032,2.65,4.11,1111122 
SCCF RECON,ioos:station:SCCF:13:1,2009-09-14T08:00:00Z,26.5255,-82.0032,2.63,4.52,1111122 
SCCF RECON,ioos:station:SCCF:13:1,2009-09-14T09:00:00Z,26.5255,-82.0032,2.66,3.48,1111122 
SCCF RECON,ioos:station:SCCF:13:1,2009-09-14T10:00:00Z,26.5255,-82.0032,2.718,3.2,1111122 
SCCF RECON,ioos:station:SCCF:13:1,2009-09-14T11:00:00Z,26.5255,-82.0032,2.78,3.63,1111122 
SCCF RECON,ioos:station:SCCF:13:1,2009-09-14T12:00:00Z,26.5255,-82.0032,2.84,4.02,1111122 
SCCF RECON,ioos:station:SCCF:13:1,2009-09-14T13:00:00Z,26.5255,-82.0032,2.9,4.12,1111122 
SCCF RECON,ioos:station:SCCF:13:1,2009-09-14T14:00:00Z,26.5255,-82.0032,2.96,4.11,1111122 
SCCF RECON,ioos:station:SCCF:13:1,2009-09-14T15:00:00Z,26.5255,-82.0032,2.95,4.44,1111122 
SCCF RECON,ioos:station:SCCF:13:1,2009-09-14T16:00:00Z,26.5255,-82.0032,2.872,4.08,1111122 
SCCF RECON,ioos:station:SCCF:13:1,2009-09-14T17:00:00Z,26.5255,-82.0032,2.74,4.08,1111122 
SCCF RECON,ioos:station:SCCF:13:1,2009-09-14T18:00:00Z,26.5255,-82.0032,2.596,4.65,1111122 
SCCF RECON,ioos:station:SCCF:13:1,2009-09-14T19:00:00Z,26.5255,-82.0032,2.482,5.51,1111122 
SCCF RECON,ioos:station:SCCF:13:1,2009-09-14T20:00:00Z,26.5255,-82.0032,2.386,6.06,1111122 
SCCF RECON,ioos:station:SCCF:13:1,2009-09-14T21:00:00Z,26.5255,-82.0032,2.329,5.64,1111122 
SCCF RECON,ioos:station:SCCF:13:1,2009-09-14T22:00:00Z,26.5255,-82.0032,2.31,5.61,1111122 
SCCF RECON,ioos:station:SCCF:13:1,2009-09-14T23:00:00Z,26.5255,-82.0032,2.353,5.71,1111122 
SCCF RECON,ioos:station:SCCF:13:1,2009-09-15T00:00:00Z,26.5255,-82.0032,2.47,5.9,1111122 
SCCF RECON,ioos:station:SCCF:13:1,2009-09-15T01:00:00Z,26.5255,-82.0032,2.545,5.57,1111122 
SCCF RECON,ioos:station:SCCF:13:1,2009-09-15T02:00:00Z,26.5255,-82.0032,2.61,5.25,1111122 
SCCF RECON,ioos:station:SCCF:13:1,2009-09-15T03:00:00Z,26.5255,-82.0032,2.662,5.17,1111122 
SCCF RECON,ioos:station:SCCF:13:1,2009-09-15T04:00:00Z,26.5255,-82.0032,2.71,5.32,1111122 
SCCF RECON,ioos:station:SCCF:13:1,2009-09-15T05:00:00Z,26.5255,-82.0032,2.72,5.15,1111122 
SCCF RECON,ioos:station:SCCF:13:1,2009-09-15T06:00:00Z,26.5255,-82.0032,2.7,4.85,1111122 
SCCF RECON,ioos:station:SCCF:13:1,2009-09-15T07:00:00Z,26.5255,-82.0032,2.64,4.71,1111122 
SCCF RECON,ioos:station:SCCF:13:1,2009-09-15T08:00:00Z,26.5255,-82.0032,2.56,4.88,1111122 
SCCF RECON,ioos:station:SCCF:13:1,2009-09-15T09:00:00Z,26.5255,-82.0032,2.54,4.71,1111122 
SCCF RECON,ioos:station:SCCF:13:1,2009-09-15T10:00:00Z,26.5255,-82.0032,2.58,4.81,1111122 
SCCF RECON,ioos:station:SCCF:13:1,2009-09-15T11:00:00Z,26.5255,-82.0032,2.655,3.96,1111122 
SCCF RECON,ioos:station:SCCF:13:1,2009-09-15T12:00:00Z,26.5255,-82.0032,2.739,4.27,1111122 
SCCF RECON,ioos:station:SCCF:13:1,2009-09-15T13:00:00Z,26.5255,-82.0032,2.82,4.4,1111122 
SCCF RECON,ioos:station:SCCF:13:1,2009-09-15T14:00:00Z,26.5255,-82.0032,2.9,4.42,1111122 
SCCF RECON,ioos:station:SCCF:13:1,2009-09-15T15:00:00Z,26.5255,-82.0032,2.95,4.34,1111122 
SCCF RECON,ioos:station:SCCF:13:1,2009-09-15T16:00:00Z,26.5255,-82.0032,2.947,4.66,1111122 
SCCF RECON,ioos:station:SCCF:13:1,2009-09-15T17:00:00Z,26.5255,-82.0032,2.835,4.64,1111122 
SCCF RECON,ioos:station:SCCF:13:1,2009-09-15T18:00:00Z,26.5255,-82.0032,2.68,4.69,1111122 
SCCF RECON,ioos:station:SCCF:13:1,2009-09-15T19:00:00Z,26.5255,-82.0032,2.56,4.95,1111122 
SCCF RECON,ioos:station:SCCF:13:1,2009-09-15T20:00:00Z,26.5255,-82.0032,2.48,5.64,1111122 
SCCF RECON,ioos:station:SCCF:13:1,2009-09-15T21:00:00Z,26.5255,-82.0032,2.39,6.14,1111122 
SCCF RECON,ioos:station:SCCF:13:1,2009-09-15T22:00:00Z,26.5255,-82.0032,2.315,5.68,1111122 
SCCF RECON,ioos:station:SCCF:13:1,2009-09-15T23:00:00Z,26.5255,-82.0032,2.322,5.57,1111122 
SCCF RECON,ioos:station:SCCF:13:1,2009-09-16T00:00:00Z,26.5255,-82.0032,2.42,5.64,1111122 
SCCF RECON,ioos:station:SCCF:13:1,2009-09-16T01:00:00Z,26.5255,-82.0032,2.51,5.81,1111122 
SCCF RECON,ioos:station:SCCF:13:1,2009-09-16T02:00:00Z,26.5255,-82.0032,2.6,5.46,1111122 
SCCF RECON,ioos:station:SCCF:13:1,2009-09-16T03:00:00Z,26.5255,-82.0032,2.68,5.15,1111122 
SCCF RECON,ioos:station:SCCF:13:1,2009-09-16T04:00:00Z,26.5255,-82.0032,2.75,5.18,1111122 
SCCF RECON,ioos:station:SCCF:13:1,2009-09-16T05:00:00Z,26.5255,-82.0032,2.772,5.3,1111122 
SCCF RECON,ioos:station:SCCF:13:1,2009-09-16T06:00:00Z,26.5255,-82.0032,2.77,5.13,1111122 
SCCF RECON,ioos:station:SCCF:13:1,2009-09-16T07:00:00Z,26.5255,-82.0032,2.73,4.91,1111122 
SCCF RECON,ioos:station:SCCF:13:1,2009-09-16T08:00:00Z,26.5255,-82.0032,2.64,4.76,1111122 
SCCF RECON,ioos:station:SCCF:13:1,2009-09-16T09:00:00Z,26.5255,-82.0032,2.55,4.67,1111122 
SCCF RECON,ioos:station:SCCF:13:1,2009-09-16T10:00:00Z,26.5255,-82.0032,2.5,4.99,1111122 
SCCF RECON,ioos:station:SCCF:13:1,2009-09-16T11:00:00Z,26.5255,-82.0032,2.544,5.21,1111122 
SCCF RECON,ioos:station:SCCF:13:1,2009-09-16T12:00:00Z,26.5255,-82.0032,2.67,4.42,1111122 
SCCF RECON,ioos:station:SCCF:13:1,2009-09-16T13:00:00Z,26.5255,-82.0032,2.793,4.21,1111122 
SCCF RECON,ioos:station:SCCF:13:1,2009-09-16T14:00:00Z,26.5255,-82.0032,2.868,4.62,1111122 
SCCF RECON,ioos:station:SCCF:13:1,2009-09-16T15:00:00Z,26.5255,-82.0032,2.927,4.81,1111122 
SCCF RECON,ioos:station:SCCF:13:1,2009-09-16T16:00:00Z,26.5255,-82.0032,2.979,4.9,1111122 
SCCF RECON,ioos:station:SCCF:13:1,2009-09-16T17:00:00Z,26.5255,-82.0032,2.97,5.26,1111122 
SCCF RECON,ioos:station:SCCF:13:1,2009-09-16T18:00:00Z,26.5255,-82.0032,2.883,5.27,1111122 
SCCF RECON,ioos:station:SCCF:13:1,2009-09-16T19:00:00Z,26.5255,-82.0032,2.73,5.48,1111122 
SCCF RECON,ioos:station:SCCF:13:1,2009-09-16T20:00:00Z,26.5255,-82.0032,2.605,5.32,1111122 
SCCF RECON,ioos:station:SCCF:13:1,2009-09-16T21:00:00Z,26.5255,-82.0032,2.516,5.8,1111122 
SCCF RECON,ioos:station:SCCF:13:1,2009-09-16T22:00:00Z,26.5255,-82.0032,2.41,5.78,1111122 
SCCF RECON,ioos:station:SCCF:13:1,2009-09-16T23:00:00Z,26.5255,-82.0032,2.34,5.58,1111122 
SCCF RECON,ioos:station:SCCF:13:1,2009-09-17T00:00:00Z,26.5255,-82.0032,2.34,5.36,1111122 
SCCF RECON,ioos:station:SCCF:13:1,2009-09-17T01:00:00Z,26.5255,-82.0032,2.47,5.51,1111122 
SCCF RECON,ioos:station:SCCF:13:1,2009-09-17T02:00:00Z,26.5255,-82.0032,2.61,5.36,1111122 
SCCF RECON,ioos:station:SCCF:13:1,2009-09-17T03:00:00Z,26.5255,-82.0032,2.682,4.74,1111122 
SCCF RECON,ioos:station:SCCF:13:1,2009-09-17T04:00:00Z,26.5255,-82.0032,2.75,4.95,1111122 
SCCF RECON,ioos:station:SCCF:13:1,2009-09-17T05:00:00Z,26.5255,-82.0032,2.8,5.31,1111122 
SCCF RECON,ioos:station:SCCF:13:1,2009-09-17T06:00:00Z,26.5255,-82.0032,2.79,5.47,1111122 
SCCF RECON,ioos:station:SCCF:13:1,2009-09-17T07:00:00Z,26.5255,-82.0032,2.71,5.34,1111122 
SCCF RECON,ioos:station:SCCF:13:1,2009-09-17T08:00:00Z,26.5255,-82.0032,2.602,5.32,1111122 
SCCF RECON,ioos:station:SCCF:13:1,2009-09-17T09:00:00Z,26.5255,-82.0032,2.51,4.75,1111122 
SCCF RECON,ioos:station:SCCF:13:1,2009-09-17T10:00:00Z,26.5255,-82.0032,2.421,5.06,1111122 
SCCF RECON,ioos:station:SCCF:13:1,2009-09-17T11:00:00Z,26.5255,-82.0032,2.39,5.03,1111122 
SCCF RECON,ioos:station:SCCF:13:1,2009-09-17T12:00:00Z,26.5255,-82.0032,2.458,5.15,1111122 
SCCF RECON,ioos:station:SCCF:13:1,2009-09-17T13:00:00Z,26.5255,-82.0032,2.613,5.04,1111122 
SCCF RECON,ioos:station:SCCF:13:1,2009-09-17T14:00:00Z,26.5255,-82.0032,2.74,4.29,1111122 
SCCF RECON,ioos:station:SCCF:13:1,2009-09-17T15:00:00Z,26.5255,-82.0032,2.82,4.47,1111122 
SCCF RECON,ioos:station:SCCF:13:1,2009-09-17T16:00:00Z,26.5255,-82.0032,2.898,4.83,1111122 
SCCF RECON,ioos:station:SCCF:13:1,2009-09-17T17:00:00Z,26.5255,-82.0032,2.939,5.04,1111122 
SCCF RECON,ioos:station:SCCF:13:1,2009-09-17T18:00:00Z,26.5255,-82.0032,2.925,5.27,1111122 
SCCF RECON,ioos:station:SCCF:13:1,2009-09-17T19:00:00Z,26.5255,-82.0032,2.83,5.28,1111122 
SCCF RECON,ioos:station:SCCF:13:1,2009-09-17T20:00:00Z,26.5255,-82.0032,2.69,5.34,1111122 
SCCF RECON,ioos:station:SCCF:13:1,2009-09-17T21:00:00Z,26.5255,-82.0032,2.572,4.97,1111122 
SCCF RECON,ioos:station:SCCF:13:1,2009-09-17T22:00:00Z,26.5255,-82.0032,2.48,5.36,1111122 
SCCF RECON,ioos:station:SCCF:13:1,2009-09-17T23:00:00Z,26.5255,-82.0032,2.399,5.43,1111122 
SCCF RECON,ioos:station:SCCF:13:1,2009-09-18T00:00:00Z,26.5255,-82.0032,2.349,5.25,1111122 
SCCF RECON,ioos:station:SCCF:13:1,2009-09-18T01:00:00Z,26.5255,-82.0032,2.43,5.06,1111122 
SCCF RECON,ioos:station:SCCF:13:1,2009-09-18T02:00:00Z,26.5255,-82.0032,2.581,4.8,1111122 
SCCF RECON,ioos:station:SCCF:13:1,2009-09-18T03:00:00Z,26.5255,-82.0032,2.69,4.48,1111122 
SCCF RECON,ioos:station:SCCF:13:1,2009-09-18T04:00:00Z,26.5255,-82.0032,2.75,4.59,1111122 
SCCF RECON,ioos:station:SCCF:13:1,2009-09-18T05:00:00Z,26.5255,-82.0032,2.817,4.75,1111122 
SCCF RECON,ioos:station:SCCF:13:1,2009-09-18T06:00:00Z,26.5255,-82.0032,2.82,5.15,1111122 
SCCF RECON,ioos:station:SCCF:13:1,2009-09-18T07:00:00Z,26.5255,-82.0032,2.753,4.97,1111122 
SCCF RECON,ioos:station:SCCF:13:1,2009-09-18T08:00:00Z,26.5255,-82.0032,2.65,4.87,1111122 
SCCF RECON,ioos:station:SCCF:13:1,2009-09-18T09:00:00Z,26.5255,-82.0032,2.5,4.55,1111122 
SCCF RECON,ioos:station:SCCF:13:1,2009-09-18T10:00:00Z,26.5255,-82.0032,2.42,4.78,1111122 
SCCF RECON,ioos:station:SCCF:13:1,2009-09-18T11:00:00Z,26.5255,-82.0032,2.35,4.81,1111122 
SCCF RECON,ioos:station:SCCF:13:1,2009-09-18T12:00:00Z,26.5255,-82.0032,2.31,4.84,1111122 
SCCF RECON,ioos:station:SCCF:13:1,2009-09-18T13:00:00Z,26.5255,-82.0032,2.39,4.91,1111122 
SCCF RECON,ioos:station:SCCF:13:1,2009-09-18T14:00:00Z,26.5255,-82.0032,2.576,4.83,1111122 
SCCF RECON,ioos:station:SCCF:13:1,2009-09-18T15:00:00Z,26.5255,-82.0032,2.705,4.53,1111122 
SCCF RECON,ioos:station:SCCF:13:1,2009-09-18T16:00:00Z,26.5255,-82.0032,2.789,4.38,1111122 
SCCF RECON,ioos:station:SCCF:13:1,2009-09-18T17:00:00Z,26.5255,-82.0032,2.849,5.03,1111122 
SCCF RECON,ioos:station:SCCF:13:1,2009-09-18T18:00:00Z,26.5255,-82.0032,2.879,5.28,1111122 
SCCF RECON,ioos:station:SCCF:13:1,2009-09-18T19:00:00Z,26.5255,-82.0032,2.861,5.74,1111122 
SCCF RECON,ioos:station:SCCF:13:1,2009-09-18T20:00:00Z,26.5255,-82.0032,2.77,5.78,1111122 
SCCF RECON,ioos:station:SCCF:13:1,2009-09-18T21:00:00Z,26.5255,-82.0032,2.64,5.76,1111122 
SCCF RECON,ioos:station:SCCF:13:1,2009-09-18T22:00:00Z,26.5255,-82.0032,2.53,5.18,1111122 
SCCF RECON,ioos:station:SCCF:13:1,2009-09-18T23:00:00Z,26.5255,-82.0032,2.452,5.58,1111122 
SCCF RECON,ioos:station:SCCF:13:1,2009-09-19T00:00:00Z,26.5255,-82.0032,2.389,5.51,1111122 
SCCF RECON,ioos:station:SCCF:13:1,2009-09-19T01:00:00Z,26.5255,-82.0032,2.392,5.42,1111122 
SCCF RECON,ioos:station:SCCF:13:1,2009-09-19T02:00:00Z,26.5255,-82.0032,2.57,5.19,1111122 
SCCF RECON,ioos:station:SCCF:13:1,2009-09-19T03:00:00Z,26.5255,-82.0032,2.69,4.78,1111122 
SCCF RECON,ioos:station:SCCF:13:1,2009-09-19T04:00:00Z,26.5255,-82.0032,2.77,4.7,1111122 
SCCF RECON,ioos:station:SCCF:13:1,2009-09-19T05:00:00Z,26.5255,-82.0032,2.82,4.99,1111122 
SCCF RECON,ioos:station:SCCF:13:1,2009-09-19T06:00:00Z,26.5255,-82.0032,2.85,5.37,1111122 
SCCF RECON,ioos:station:SCCF:13:1,2009-09-19T07:00:00Z,26.5255,-82.0032,2.831,5.37,1111122 
SCCF RECON,ioos:station:SCCF:13:1,2009-09-19T08:00:00Z,26.5255,-82.0032,2.758,5.19,1111122 
SCCF RECON,ioos:station:SCCF:13:1,2009-09-19T09:00:00Z,26.5255,-82.0032,2.61,5.05,1111122 
SCCF RECON,ioos:station:SCCF:13:1,2009-09-19T10:00:00Z,26.5255,-82.0032,2.49,4.91,1111122 
SCCF RECON,ioos:station:SCCF:13:1,2009-09-19T11:00:00Z,26.5255,-82.0032,2.42,5.01,1111122 
SCCF RECON,ioos:station:SCCF:13:1,2009-09-19T12:00:00Z,26.5255,-82.0032,2.34,5.0,1111122 
SCCF RECON,ioos:station:SCCF:13:1,2009-09-19T13:00:00Z,26.5255,-82.0032,2.31,4.96,1111122 
SCCF RECON,ioos:station:SCCF:13:1,2009-09-19T14:00:00Z,26.5255,-82.0032,2.436,5.04,1111122 
SCCF RECON,ioos:station:SCCF:13:1,2009-09-19T15:00:00Z,26.5255,-82.0032,2.598,4.94,1111122 